Voltar ao catálogo

STARLINK-32946

AtivoComunicaçõesVLEO
NORAD 63196·PAYLOAD·🇺🇸 United States

Lançado Mar 13, 2025 de Cape Canaveral Space Force Station

Loading…

Próximas Passagens (próximas 24 horas)

TLE

AtualizadoSource: CelesTrak SupGP

Época: Sep 14, 2026, 21:24 UTC

1 63196C 25048P   26257.89215278 -.00026111  00000+0 -94607-3 0  2576
2 63196  43.0021 100.8146 0001371 274.0297  42.7079 15.27579769    18

Acompanhe STARLINK-32946 em tempo real com AllMySat

Download on the App Store